contact:dominique.lefevre@mio.osupytheas.fr, maurice.libes@osupytheas.fr, didier.mallarino@osupytheas.fr
Project:EMSO http://www.emso-fr.org/EMSO-France
Depth: 2436.0 m
Title:EMSO Ligure Ouest : Data MII capteur AQUADOPP
Date,Latitude,Longitude,X_East,Y_North,Z_Up,Amplitude_X,Amplitude_Y,Amplitude_Z,Batterie,SoundSpeed,Heading,Pitch,Roll,Pressure,TIS,Speed,Direction
, degrees North, degrees East, m.s-1, m.s-1,m.s-1, 1, 1, 1, Volt, m.s-1, degree, degree, degree, dbar, degree_C, m.s-1, degree
2020-06-27T00:04:03,42.805,6.029,-0.062,-0.041,-0.019,105.0,106.0,102.0,13.4,1505.2,324.6,-0.7,1.8,2470.524,13.3,0.074,236.5
2020-06-27T00:07:03,42.805,6.029,-0.089,-0.034,-0.024,106.0,105.0,102.0,13.4,1505.3,326.0,-0.7,1.8,2470.508,13.31,0.095,249.1
2020-06-27T00:10:03,42.805,6.029,-0.081,-0.013,-0.008,104.0,106.0,102.0,13.3,1505.3,326.1,-0.7,1.8,2470.499,13.31,0.082,260.9
2020-06-27T00:13:03,42.805,6.029,-0.087,-0.021,0.001,105.0,104.0,102.0,13.4,1505.3,327.9,-0.7,1.9,2470.469,13.32,0.089,256.4
2020-06-27T00:16:03,42.805,6.029,-0.083,-0.026,-0.011,106.0,105.0,102.0,13.4,1505.3,326.3,-0.7,1.8,2470.499,13.32,0.086,252.6
2020-06-27T00:19:03,42.805,6.029,-0.087,-0.025,-0.022,105.0,105.0,102.0,13.4,1505.3,324.8,-0.7,1.8,2470.523,13.32,0.09,254.0
2020-06-27T00:22:03,42.805,6.029,-0.104,-0.013,-0.009,105.0,105.0,102.0,13.4,1505.3,328.1,-0.7,1.9,2470.499,13.32,0.104,262.9
2020-06-27T00:25:03,42.805,6.029,-0.102,-0.033,-0.019,105.0,104.0,103.0,13.3,1505.3,327.4,-0.7,1.8,2470.489,13.32,0.107,252.1
2020-06-27T00:28:03,42.805,6.029,-0.089,-0.029,-0.007,105.0,105.0,103.0,13.4,1505.3,324.9,-0.7,1.8,2470.506,13.32,0.093,252.0
2020-06-27T00:31:03,42.805,6.029,-0.078,-0.016,-0.009,106.0,104.0,103.0,13.4,1505.3,324.0,-0.7,1.8,2470.483,13.32,0.079,258.4
2020-06-27T00:34:03,42.805,6.029,-0.092,-0.02,0.029,105.0,106.0,103.0,13.3,1505.3,323.7,-0.7,1.8,2470.471,13.32,0.094,257.7
2020-06-27T00:37:03,42.805,6.029,-0.087,-0.005,-0.017,105.0,106.0,102.0,13.3,1505.3,324.6,-0.7,1.8,2470.442,13.32,0.087,266.7
2020-06-27T00:40:03,42.805,6.029,-0.095,-0.024,-0.028,104.0,106.0,103.0,13.3,1505.3,324.9,-0.7,1.8,2470.479,13.32,0.097,255.8
2020-06-27T00:43:03,42.805,6.029,-0.091,-0.009,-0.027,106.0,106.0,102.0,13.4,1505.3,327.4,-0.7,1.8,2470.489,13.32,0.091,264.4
2020-06-27T00:46:03,42.805,6.029,-0.105,-0.005,-0.002,106.0,106.0,102.0,13.3,1505.3,326.8,-0.7,1.8,2470.444,13.32,0.105,267.3
2020-06-27T00:49:03,42.805,6.029,-0.076,-0.012,0.014,105.0,105.0,103.0,13.3,1505.3,326.6,-0.7,1.8,2470.505,13.32,0.076,261.0
2020-06-27T00:52:03,42.805,6.029,-0.089,-0.008,0.0,106.0,106.0,103.0,13.4,1505.3,323.8,-0.7,1.8,2470.445,13.32,0.089,264.9
2020-06-27T00:55:03,42.805,6.029,-0.089,-0.012,-0.015,107.0,106.0,103.0,13.4,1505.3,325.0,-0.7,1.9,2470.46,13.32,0.089,262.3
2020-06-27T00:58:03,42.805,6.029,-0.075,-0.005,-0.027,107.0,106.0,101.0,13.4,1505.3,326.4,-0.7,1.8,2470.425,13.32,0.075,266.2
2020-06-27T01:04:03,42.805,6.029,-0.065,-0.01,-0.023,107.0,107.0,103.0,13.4,1505.2,323.4,-0.7,1.8,2470.443,13.3,0.065,261.3
2020-06-27T01:07:03,42.805,6.029,-0.074,-0.028,-0.031,107.0,105.0,103.0,13.3,1505.3,324.8,-0.7,1.8,2470.448,13.31,0.079,249.3
2020-06-27T01:10:03,42.805,6.029,-0.073,-0.011,0.001,105.0,104.0,103.0,13.4,1505.3,324.7,-0.7,1.8,2470.447,13.31,0.073,261.4
2020-06-27T01:13:03,42.805,6.029,-0.073,-0.03,-0.021,106.0,105.0,102.0,13.4,1505.3,324.5,-0.7,1.8,2470.491,13.32,0.078,247.7
2020-06-27T01:16:03,42.805,6.029,-0.091,-0.02,0.018,106.0,106.0,101.0,13.4,1505.3,325.0,-0.7,1.8,2470.453,13.32,0.093,257.6
2020-06-27T01:19:03,42.805,6.029,-0.08,-0.019,-0.01,105.0,104.0,101.0,13.3,1505.3,325.3,-0.6,1.8,2470.494,13.32,0.082,256.6
2020-06-27T01:22:03,42.805,6.029,-0.085,-0.013,-0.009,105.0,105.0,102.0,13.4,1505.3,325.9,-0.7,1.9,2470.433,13.32,0.085,261.3
2020-06-27T01:25:03,42.805,6.029,-0.06,-0.027,-0.012,106.0,106.0,102.0,13.3,1505.3,326.1,-0.7,1.8,2470.464,13.32,0.065,245.8
2020-06-27T01:28:03,42.805,6.029,-0.053,-0.017,0.002,106.0,106.0,104.0,13.3,1505.3,328.0,-0.7,1.8,2470.445,13.32,0.055,252.2
2020-06-27T01:31:03,42.805,6.029,-0.048,-0.042,-0.018,106.0,107.0,102.0,13.3,1505.3,324.2,-0.7,1.8,2470.476,13.32,0.063,228.8
2020-06-27T01:34:03,42.805,6.029,-0.072,-0.045,0.01,105.0,105.0,102.0,13.4,1505.3,324.6,-0.7,1.8,2470.427,13.32,0.084,238.0
2020-06-27T01:37:03,42.805,6.029,-0.074,-0.016,-0.014,105.0,105.0,102.0,13.4,1505.3,325.8,-0.7,1.8,2470.429,13.32,0.075,257.8
2020-06-27T01:40:03,42.805,6.029,-0.067,-0.032,-0.036,106.0,106.0,102.0,13.4,1505.3,323.2,-0.7,1.8,2470.467,13.32,0.074,244.5
2020-06-27T01:43:03,42.805,6.029,-0.097,-0.027,-0.005,106.0,105.0,102.0,13.4,1505.3,323.4,-0.7,1.8,2470.434,13.32,0.1,254.4
2020-06-27T01:46:03,42.805,6.029,-0.075,-0.011,-0.033,105.0,105.0,102.0,13.4,1505.3,324.7,-0.7,1.8,2470.422,13.32,0.075,261.7
2020-06-27T01:49:03,42.805,6.029,-0.083,-0.013,0.014,105.0,104.0,102.0,13.3,1505.3,324.7,-0.7,1.8,2470.445,13.32,0.084,261.1
2020-06-27T01:52:03,42.805,6.029,-0.072,-0.018,-0.029,106.0,105.0,102.0,13.4,1505.3,324.7,-0.7,1.8,2470.413,13.32,0.074,256.0
2020-06-27T01:55:03,42.805,6.029,-0.089,-0.006,-0.011,105.0,104.0,102.0,13.4,1505.3,326.9,-0.7,1.8,2470.421,13.32,0.089,266.1
2020-06-27T01:58:03,42.805,6.029,-0.062,-0.017,-0.013,106.0,106.0,102.0,13.3,1505.3,325.5,-0.7,1.8,2470.446,13.32,0.064,254.7
2020-06-27T02:04:03,42.805,6.029,-0.076,-0.012,0.005,105.0,105.0,103.0,13.4,1505.2,324.4,-0.8,1.8,2470.452,13.3,0.076,261.0
2020-06-27T02:07:03,42.805,6.029,-0.087,-0.016,-0.029,105.0,105.0,102.0,13.3,1505.3,324.2,-0.7,1.8,2470.485,13.31,0.088,259.6
2020-06-27T02:10:03,42.805,6.029,-0.099,-0.013,0.012,105.0,105.0,103.0,13.4,1505.3,328.2,-0.7,1.8,2470.43,13.31,0.099,262.5
2020-06-27T02:13:03,42.805,6.029,-0.087,-0.007,-0.028,104.0,104.0,102.0,13.4,1505.3,326.0,-0.7,1.8,2470.434,13.32,0.087,265.4
2020-06-27T02:16:03,42.805,6.029,-0.088,0.015,-0.001,105.0,105.0,102.0,13.4,1505.3,326.5,-0.7,1.8,2470.433,13.32,0.089,279.7
2020-06-27T02:19:03,42.805,6.029,-0.089,-0.026,-0.01,104.0,106.0,104.0,13.3,1505.3,325.4,-0.7,1.8,2470.407,13.32,0.092,253.7
2020-06-27T02:22:03,42.805,6.029,-0.087,-0.014,-0.008,106.0,105.0,101.0,13.3,1505.3,326.8,-0.7,1.8,2470.441,13.32,0.088,260.9
2020-06-27T02:25:03,42.805,6.029,-0.063,-0.017,0.014,106.0,105.0,103.0,13.4,1505.3,326.3,-0.7,1.8,2470.421,13.32,0.065,254.9
2020-06-27T02:28:03,42.805,6.029,-0.083,-0.009,0.002,104.0,107.0,100.0,13.4,1505.3,323.6,-0.7,1.9,2470.416,13.32,0.083,263.8
2020-06-27T02:31:03,42.805,6.029,-0.072,-0.019,-0.012,105.0,106.0,103.0,13.3,1505.3,323.6,-0.7,1.8,2470.394,13.32,0.074,255.2
2020-06-27T02:34:03,42.805,6.029,-0.102,-0.001,0.013,106.0,106.0,102.0,13.4,1505.3,326.3,-0.7,1.9,2470.395,13.32,0.102,269.4
2020-06-27T02:37:03,42.805,6.029,-0.068,-0.023,-0.015,106.0,106.0,101.0,13.3,1505.3,325.6,-0.7,1.8,2470.393,13.32,0.071,251.3
2020-06-27T02:40:03,42.805,6.029,-0.093,-0.012,-0.003,105.0,106.0,101.0,13.3,1505.3,326.0,-0.7,1.8,2470.38,13.32,0.093,262.7
2020-06-27T02:43:03,42.805,6.029,-0.083,-0.006,-0.024,105.0,104.0,103.0,13.3,1505.3,326.5,-0.7,1.8,2470.372,13.32,0.083,265.9
2020-06-27T02:46:03,42.805,6.029,-0.099,-0.023,-0.025,106.0,105.0,103.0,13.4,1505.3,324.5,-0.7,1.8,2470.387,13.32,0.101,256.9
2020-06-27T02:52:03,42.805,6.029,-0.087,-0.023,-0.014,106.0,106.0,102.0,13.3,1505.2,326.6,-0.7,1.8,2470.391,13.3,0.089,255.2
2020-06-27T02:55:03,42.805,6.029,-0.063,-0.012,-0.025,104.0,106.0,103.0,13.3,1505.3,327.9,-0.7,1.9,2470.441,13.31,0.064,259.2
2020-06-27T02:58:03,42.805,6.029,-0.066,-0.017,-0.004,105.0,105.0,103.0,13.4,1505.3,322.9,-0.7,1.8,2470.407,13.31,0.068,255.6
2020-06-27T03:04:03,42.805,6.029,-0.057,-0.001,-0.009,105.0,105.0,103.0,13.3,1505.2,323.4,-0.7,1.8,2470.427,13.3,0.057,269.0
2020-06-27T03:07:03,42.805,6.029,-0.062,-0.002,0.002,106.0,105.0,103.0,13.4,1505.3,325.5,-0.7,1.8,2470.441,13.31,0.062,268.2
2020-06-27T03:10:03,42.805,6.029,-0.062,-0.018,0.0,105.0,105.0,102.0,13.3,1505.3,327.7,-0.7,1.8,2470.437,13.31,0.064,253.8
2020-06-27T03:13:03,42.805,6.029,-0.076,-0.03,-0.026,104.0,106.0,103.0,13.4,1505.3,325.9,-0.7,1.8,2470.404,13.32,0.081,248.5
2020-06-27T03:16:03,42.805,6.029,-0.078,0.008,-0.029,106.0,105.0,101.0,13.4,1505.3,326.6,-0.7,1.8,2470.401,13.32,0.078,275.9
2020-06-27T03:19:03,42.805,6.029,-0.063,-0.025,0.003,104.0,105.0,102.0,13.3,1505.3,324.8,-0.7,1.8,2470.399,13.32,0.067,248.4
2020-06-27T03:22:03,42.805,6.029,-0.072,-0.024,-0.027,105.0,105.0,103.0,13.4,1505.3,326.3,-0.7,1.9,2470.411,13.32,0.075,251.6
2020-06-27T03:25:03,42.805,6.029,-0.076,-0.019,-0.008,104.0,105.0,102.0,13.4,1505.3,324.2,-0.7,1.8,2470.405,13.32,0.078,256.0
2020-06-27T03:28:03,42.805,6.029,-0.063,-0.009,-0.008,105.0,105.0,102.0,13.4,1505.3,328.1,-0.7,1.9,2470.407,13.32,0.063,261.9
2020-06-27T03:31:03,42.805,6.029,-0.082,-0.014,-0.001,106.0,105.0,102.0,13.4,1505.3,326.4,-0.7,1.8,2470.357,13.32,0.083,260.3
2020-06-27T03:34:03,42.805,6.029,-0.068,-0.023,0.012,105.0,105.0,102.0,13.4,1505.3,324.3,-0.7,1.8,2470.371,13.32,0.071,251.3
2020-06-27T03:37:03,42.805,6.029,-0.083,-0.023,-0.033,106.0,105.0,102.0,13.4,1505.3,324.7,-0.7,1.9,2470.411,13.32,0.086,254.5
2020-06-27T03:40:03,42.805,6.029,-0.069,-0.026,-0.017,104.0,106.0,102.0,13.4,1505.3,323.4,-0.7,1.9,2470.389,13.32,0.073,249.4
2020-06-27T03:43:03,42.805,6.029,-0.043,-0.008,0.014,105.0,106.0,103.0,13.4,1505.3,324.5,-0.8,1.8,2470.361,13.32,0.043,259.5
2020-06-27T03:46:03,42.805,6.029,-0.068,-0.022,-0.018,105.0,106.0,102.0,13.4,1505.3,324.8,-0.7,1.8,2470.396,13.32,0.071,252.1
2020-06-27T03:49:03,42.805,6.029,-0.063,0.005,0.004,104.0,107.0,102.0,13.4,1505.3,325.6,-0.7,1.8,2470.415,13.32,0.063,274.5
2020-06-27T03:52:03,42.805,6.029,-0.075,-0.008,0.0,104.0,106.0,103.0,13.3,1505.3,328.0,-0.7,1.8,2470.354,13.32,0.075,263.9
2020-06-27T03:55:03,42.805,6.029,-0.091,-0.013,-0.025,103.0,106.0,103.0,13.4,1505.3,324.4,-0.7,1.9,2470.381,13.32,0.091,261.9
2020-06-27T03:58:03,42.805,6.029,-0.096,-0.014,-0.027,103.0,105.0,102.0,13.4,1505.3,324.2,-0.7,1.8,2470.348,13.32,0.097,261.7
2020-06-27T04:04:03,42.805,6.029,-0.072,-0.022,-0.011,107.0,105.0,102.0,13.4,1505.2,326.4,-0.8,1.8,2470.365,13.3,0.075,253.0
2020-06-27T04:07:03,42.805,6.029,-0.051,-0.026,-0.047,104.0,105.0,103.0,13.4,1505.3,326.1,-0.7,1.8,2470.404,13.31,0.057,243.0
2020-06-27T04:10:03,42.805,6.029,-0.047,-0.004,0.029,104.0,105.0,102.0,13.4,1505.3,324.2,-0.7,1.9,2470.353,13.31,0.047,265.1
2020-06-27T04:13:03,42.805,6.029,-0.072,-0.014,-0.016,104.0,105.0,103.0,13.4,1505.3,327.1,-0.7,1.8,2470.352,13.32,0.073,259.0
2020-06-27T04:16:03,42.805,6.029,-0.101,-0.012,-0.005,104.0,104.0,102.0,13.3,1505.3,324.5,-0.7,1.8,2470.347,13.32,0.101,263.2
2020-06-27T04:19:03,42.805,6.029,-0.062,-0.016,0.023,104.0,105.0,101.0,13.4,1505.3,327.2,-0.7,1.8,2470.415,13.32,0.064,255.5
2020-06-27T04:22:03,42.805,6.029,-0.072,-0.017,-0.017,105.0,104.0,102.0,13.3,1505.3,326.0,-0.7,1.8,2470.355,13.32,0.073,256.7
2020-06-27T04:25:03,42.805,6.029,-0.086,-0.003,-0.048,104.0,105.0,102.0,13.4,1505.3,326.6,-0.7,1.8,2470.317,13.32,0.086,268.0
2020-06-27T04:28:03,42.805,6.029,-0.071,0.0,-0.037,104.0,104.0,102.0,13.4,1505.3,324.1,-0.7,1.8,2470.355,13.32,0.07,270.0
2020-06-27T04:31:03,42.805,6.029,-0.057,-0.027,-0.026,103.0,105.0,102.0,13.4,1505.3,327.6,-0.7,1.8,2470.367,13.32,0.063,244.7
2020-06-27T04:34:03,42.805,6.029,-0.057,-0.001,-0.025,105.0,105.0,103.0,13.4,1505.3,325.6,-0.7,1.9,2470.354,13.32,0.057,269.0
2020-06-27T04:37:03,42.805,6.029,-0.082,0.004,-0.016,105.0,105.0,102.0,13.3,1505.3,327.7,-0.7,1.8,2470.338,13.32,0.082,272.8
2020-06-27T04:40:03,42.805,6.029,-0.069,-0.017,-0.042,105.0,107.0,101.0,13.3,1505.3,328.4,-0.7,1.8,2470.355,13.32,0.071,256.2
2020-06-27T04:43:03,42.805,6.029,-0.081,-0.015,-0.003,103.0,105.0,102.0,13.4,1505.3,328.1,-0.7,1.8,2470.343,13.32,0.082,259.5
2020-06-27T04:46:03,42.805,6.029,-0.067,-0.01,0.019,103.0,105.0,102.0,13.4,1505.3,327.9,-0.7,1.8,2470.353,13.32,0.067,261.5
2020-06-27T04:49:03,42.805,6.029,-0.075,-0.002,-0.021,105.0,104.0,101.0,13.3,1505.3,324.9,-0.7,1.8,2470.288,13.32,0.075,268.5
2020-06-27T04:52:03,42.805,6.029,-0.054,-0.011,0.008,105.0,105.0,102.0,13.4,1505.3,324.5,-0.7,1.8,2470.353,13.32,0.055,258.5
2020-06-27T04:55:03,42.805,6.029,-0.061,-0.004,-0.005,104.0,105.0,103.0,13.4,1505.3,325.9,-0.7,1.9,2470.329,13.32,0.061,266.3
2020-06-27T04:58:03,42.805,6.029,-0.076,-0.008,0.005,106.0,105.0,102.0,13.4,1505.3,326.1,-0.7,1.8,2470.323,13.32,0.076,264.0
2020-06-27T05:04:03,42.805,6.029,-0.079,0.02,-0.003,105.0,105.0,102.0,13.4,1505.2,324.7,-0.7,1.8,2470.392,13.3,0.081,284.2
2020-06-27T05:07:03,42.805,6.029,-0.098,-0.005,-0.034,104.0,105.0,102.0,13.4,1505.3,325.6,-0.7,1.8,2470.355,13.31,0.098,267.1
2020-06-27T05:10:03,42.805,6.029,-0.073,-0.018,-0.018,105.0,106.0,102.0,13.4,1505.3,324.4,-0.7,1.8,2470.338,13.31,0.075,256.2
2020-06-27T05:13:03,42.805,6.029,-0.041,-0.02,-0.031,105.0,105.0,102.0,13.4,1505.3,326.7,-0.7,1.8,2470.326,13.32,0.045,244.0
2020-06-27T05:16:03,42.805,6.029,-0.072,-0.033,-0.013,106.0,104.0,102.0,13.4,1505.3,326.0,-0.7,1.8,2470.326,13.32,0.079,245.4
2020-06-27T05:19:03,42.805,6.029,-0.086,-0.005,-0.011,105.0,105.0,102.0,13.4,1505.3,325.2,-0.7,1.8,2470.302,13.32,0.086,266.7
2020-06-27T05:22:03,42.805,6.029,-0.084,-0.025,-0.002,105.0,105.0,103.0,13.3,1505.3,326.3,-0.7,1.8,2470.334,13.32,0.087,253.4
2020-06-27T05:25:03,42.805,6.029,-0.058,0.005,-0.011,104.0,105.0,101.0,13.4,1505.3,324.0,-0.7,1.8,2470.307,13.32,0.058,274.9
2020-06-27T05:28:03,42.805,6.029,-0.066,-0.003,-0.002,105.0,105.0,102.0,13.3,1505.3,324.8,-0.7,1.8,2470.296,13.32,0.066,267.4
2020-06-27T05:31:03,42.805,6.029,-0.076,-0.025,-0.012,105.0,104.0,103.0,13.4,1505.3,326.5,-0.7,1.8,2470.326,13.32,0.08,251.8
2020-06-27T05:34:03,42.805,6.029,-0.057,-0.009,-0.005,107.0,104.0,101.0,13.4,1505.3,326.0,-0.7,1.8,2470.322,13.32,0.057,261.0
2020-06-27T05:37:03,42.805,6.029,-0.059,-0.022,-0.007,104.0,106.0,102.0,13.4,1505.3,323.3,-0.7,1.8,2470.305,13.32,0.062,249.6
2020-06-27T05:40:03,42.805,6.029,-0.043,-0.004,0.0,105.0,105.0,101.0,13.4,1505.3,327.6,-0.7,1.8,2470.291,13.32,0.043,264.7
2020-06-27T05:43:03,42.805,6.029,-0.09,0.0,-0.013,104.0,106.0,102.0,13.4,1505.3,326.3,-0.7,1.8,2470.305,13.32,0.089,270.0
2020-06-27T05:46:03,42.805,6.029,-0.086,-0.017,-0.01,104.0,104.0,102.0,13.3,1505.3,323.2,-0.7,1.8,2470.275,13.32,0.087,258.8
2020-06-27T05:49:03,42.805,6.029,-0.067,-0.012,0.005,104.0,105.0,102.0,13.3,1505.3,327.1,-0.7,1.8,2470.325,13.32,0.068,259.8
2020-06-27T05:52:03,42.805,6.029,-0.064,-0.019,-0.01,105.0,105.0,103.0,13.3,1505.3,324.9,-0.7,1.8,2470.332,13.32,0.066,253.5
2020-06-27T05:55:03,42.805,6.029,-0.042,-0.027,-0.003,105.0,105.0,102.0,13.4,1505.3,323.3,-0.7,1.8,2470.302,13.32,0.049,237.3
2020-06-27T05:58:03,42.805,6.029,-0.076,-0.013,-0.021,105.0,104.0,102.0,13.4,1505.3,324.7,-0.8,1.8,2470.3,13.32,0.077,260.3
2020-06-27T06:04:03,42.805,6.029,-0.055,-0.041,-0.028,104.0,104.0,102.0,13.4,1505.2,323.3,-0.7,1.8,2470.298,13.3,0.068,233.3
2020-06-27T06:07:03,42.805,6.029,-0.089,0.002,-0.021,105.0,104.0,102.0,13.4,1505.3,324.7,-0.7,1.9,2470.344,13.31,0.089,271.3
2020-06-27T06:10:03,42.805,6.029,-0.058,0.011,0.018,104.0,106.0,102.0,13.4,1505.3,323.0,-0.7,1.8,2470.311,13.31,0.059,280.7
2020-06-27T06:13:03,42.805,6.029,-0.062,-0.028,-0.024,106.0,105.0,101.0,13.4,1505.3,326.9,-0.7,1.8,2470.342,13.32,0.068,245.7
2020-06-27T06:16:03,42.805,6.029,-0.053,-0.041,-0.003,105.0,106.0,103.0,13.3,1505.3,325.5,-0.7,1.8,2470.297,13.32,0.067,232.3
2020-06-27T06:19:03,42.805,6.029,-0.067,-0.002,-0.014,104.0,105.0,102.0,13.4,1505.3,327.4,-0.7,1.8,2470.333,13.32,0.067,268.3
2020-06-27T06:22:03,42.805,6.029,-0.075,-0.006,-0.038,106.0,104.0,103.0,13.4,1505.3,323.4,-0.7,1.9,2470.261,13.32,0.075,265.4
2020-06-27T06:25:03,42.805,6.029,-0.081,-0.005,-0.031,105.0,106.0,102.0,13.4,1505.3,324.5,-0.7,1.8,2470.341,13.32,0.081,266.5
2020-06-27T06:28:03,42.805,6.029,-0.052,-0.016,0.0,107.0,106.0,102.0,13.4,1505.3,325.1,-0.7,1.8,2470.326,13.32,0.054,252.9
2020-06-27T06:31:03,42.805,6.029,-0.068,0.002,0.013,105.0,106.0,103.0,13.4,1505.3,323.2,-0.7,1.8,2470.312,13.32,0.068,271.7
2020-06-27T06:34:03,42.805,6.029,-0.066,-0.031,-0.034,104.0,106.0,103.0,13.4,1505.3,326.6,-0.7,1.8,2470.319,13.32,0.072,244.8
2020-06-27T06:37:03,42.805,6.029,-0.073,-0.01,-0.004,104.0,105.0,102.0,13.4,1505.3,326.0,-0.7,1.8,2470.294,13.32,0.073,262.2
2020-06-27T06:40:03,42.805,6.029,-0.035,-0.026,-0.019,105.0,105.0,102.0,13.4,1505.3,323.3,-0.7,1.8,2470.315,13.32,0.043,233.4
2020-06-27T06:43:03,42.805,6.029,-0.057,-0.017,-0.007,105.0,105.0,102.0,13.3,1505.3,326.9,-0.7,1.8,2470.297,13.32,0.059,253.4
2020-06-27T06:46:03,42.805,6.029,-0.05,-0.026,0.012,104.0,105.0,104.0,13.4,1505.3,324.2,-0.7,1.9,2470.302,13.32,0.056,242.5
2020-06-27T06:49:03,42.805,6.029,-0.051,-0.035,-0.026,103.0,104.0,102.0,13.4,1505.3,325.7,-0.7,1.8,2470.299,13.32,0.061,235.5
2020-06-27T06:52:03,42.805,6.029,-0.064,-0.024,-0.031,103.0,106.0,102.0,13.4,1505.3,325.9,-0.7,1.8,2470.269,13.32,0.068,249.4
2020-06-27T06:55:03,42.805,6.029,-0.058,-0.006,-0.006,105.0,105.0,102.0,13.3,1505.3,325.0,-0.7,1.8,2470.319,13.32,0.058,264.1
2020-06-27T06:58:03,42.805,6.029,-0.079,-0.009,-0.001,104.0,105.0,102.0,13.4,1505.3,324.2,-0.7,1.8,2470.326,13.32,0.079,263.5
2020-06-27T07:04:03,42.805,6.029,-0.053,-0.024,-0.002,104.0,105.0,101.0,13.4,1505.2,324.4,-0.7,1.8,2470.328,13.3,0.058,245.6
2020-06-27T07:07:03,42.805,6.029,-0.077,-0.004,-0.003,106.0,104.0,101.0,13.4,1505.3,326.6,-0.7,1.8,2470.31,13.31,0.077,267.0
2020-06-27T07:10:03,42.805,6.029,-0.06,-0.025,-0.018,104.0,105.0,102.0,13.4,1505.3,324.8,-0.7,1.8,2470.336,13.31,0.064,247.4
2020-06-27T07:13:03,42.805,6.029,-0.063,-0.023,-0.026,103.0,105.0,102.0,13.3,1505.3,323.0,-0.7,1.8,2470.348,13.32,0.067,249.9
2020-06-27T07:16:03,42.805,6.029,-0.065,-0.016,0.0,104.0,104.0,102.0,13.4,1505.3,328.6,-0.7,1.8,2470.295,13.32,0.066,256.2
2020-06-27T07:19:03,42.805,6.029,-0.082,0.008,0.001,104.0,105.0,102.0,13.4,1505.3,327.3,-0.6,1.8,2470.34,13.32,0.082,275.6
2020-06-27T07:22:03,42.805,6.029,-0.076,-0.022,-0.024,105.0,105.0,102.0,13.4,1505.3,326.1,-0.7,1.8,2470.271,13.32,0.079,253.9
2020-06-27T07:25:03,42.805,6.029,-0.069,-0.004,-0.008,103.0,105.0,102.0,13.4,1505.3,325.8,-0.7,1.8,2470.273,13.32,0.069,266.7
2020-06-27T07:28:03,42.805,6.029,-0.071,-0.013,-0.019,104.0,104.0,102.0,13.4,1505.3,326.5,-0.7,1.8,2470.356,13.32,0.072,259.6
2020-06-27T07:31:03,42.805,6.029,-0.047,-0.028,0.017,106.0,103.0,102.0,13.4,1505.3,324.9,-0.6,1.8,2470.297,13.32,0.054,239.2
2020-06-27T07:34:03,42.805,6.029,-0.067,-0.02,0.002,108.0,105.0,101.0,13.4,1505.3,323.3,-0.7,1.9,2470.335,13.32,0.069,253.4
2020-06-27T07:37:03,42.805,6.029,-0.063,-0.008,-0.042,104.0,104.0,102.0,13.3,1505.3,326.8,-0.7,1.8,2470.309,13.32,0.063,262.8
2020-06-27T07:40:03,42.805,6.029,-0.08,-0.013,-0.01,104.0,105.0,101.0,13.3,1505.3,327.0,-0.7,1.8,2470.319,13.32,0.081,260.8
2020-06-27T07:43:03,42.805,6.029,-0.069,-0.023,-0.035,105.0,106.0,102.0,13.4,1505.3,325.1,-0.7,1.8,2470.301,13.32,0.072,251.6
2020-06-27T07:46:03,42.805,6.029,-0.087,-0.014,-0.019,104.0,105.0,102.0,13.4,1505.3,326.0,-0.7,1.8,2470.298,13.32,0.088,260.9
2020-06-27T07:49:03,42.805,6.029,-0.068,-0.009,-0.018,104.0,105.0,101.0,13.4,1505.3,323.1,-0.7,1.9,2470.316,13.32,0.068,262.5
2020-06-27T07:52:03,42.805,6.029,-0.054,-0.008,-0.033,104.0,106.0,102.0,13.4,1505.3,327.3,-0.7,1.8,2470.313,13.32,0.054,261.6
2020-06-27T07:55:03,42.805,6.029,-0.058,-0.003,-0.012,104.0,105.0,102.0,13.3,1505.3,326.3,-0.7,1.8,2470.288,13.32,0.058,267.0
2020-06-27T07:58:03,42.805,6.029,-0.068,-0.022,-0.01,106.0,104.0,101.0,13.4,1505.3,323.3,-0.7,1.8,2470.292,13.32,0.071,252.1
2020-06-27T08:04:03,42.805,6.029,-0.063,-0.01,-0.028,104.0,106.0,101.0,13.4,1505.2,326.2,-0.7,1.8,2470.325,13.3,0.063,261.0
2020-06-27T08:07:03,42.805,6.029,-0.058,-0.009,0.008,104.0,106.0,101.0,13.4,1505.3,326.9,-0.7,1.8,2470.35,13.31,0.058,261.2
2020-06-27T08:10:03,42.805,6.029,-0.077,-0.017,-0.017,104.0,104.0,103.0,13.4,1505.3,326.9,-0.7,1.8,2470.293,13.31,0.078,257.6
2020-06-27T08:13:03,42.805,6.029,-0.064,-0.026,-0.004,104.0,104.0,102.0,13.4,1505.3,328.0,-0.8,1.9,2470.288,13.32,0.069,247.9
2020-06-27T08:16:03,42.805,6.029,-0.053,-0.024,-0.013,105.0,105.0,103.0,13.4,1505.3,326.1,-0.7,1.8,2470.289,13.32,0.058,245.6
2020-06-27T08:19:03,42.805,6.029,-0.058,-0.032,-0.02,103.0,105.0,103.0,13.4,1505.3,327.8,-0.7,1.8,2470.319,13.32,0.066,241.1
2020-06-27T08:22:03,42.805,6.029,-0.088,-0.013,-0.039,105.0,105.0,102.0,13.4,1505.3,326.0,-0.7,1.8,2470.321,13.32,0.088,261.6
2020-06-27T08:25:03,42.805,6.029,-0.059,-0.008,-0.004,106.0,104.0,102.0,13.4,1505.3,326.5,-0.7,1.8,2470.327,13.32,0.059,262.3
2020-06-27T08:28:03,42.805,6.029,-0.062,-0.036,0.018,105.0,105.0,101.0,13.4,1505.3,324.5,-0.7,1.8,2470.334,13.32,0.071,239.9
2020-06-27T08:31:03,42.805,6.029,-0.068,-0.038,-0.003,104.0,106.0,102.0,13.4,1505.3,324.9,-0.7,1.9,2470.34,13.32,0.077,240.8
2020-06-27T08:34:03,42.805,6.029,-0.068,-0.011,-0.036,104.0,105.0,102.0,13.3,1505.3,326.1,-0.7,1.8,2470.351,13.32,0.068,260.8
2020-06-27T08:37:03,42.805,6.029,-0.105,0.0,-0.005,105.0,105.0,103.0,13.4,1505.3,326.4,-0.7,1.8,2470.303,13.32,0.105,270.0
2020-06-27T08:40:03,42.805,6.029,-0.08,-0.011,-0.018,105.0,105.0,102.0,13.3,1505.3,324.2,-0.7,1.8,2470.297,13.32,0.08,262.2
2020-06-27T08:43:03,42.805,6.029,-0.032,-0.018,-0.012,104.0,105.0,102.0,13.4,1505.3,324.7,-0.7,1.8,2470.314,13.32,0.036,240.6
2020-06-27T08:46:03,42.805,6.029,-0.059,-0.008,-0.018,105.0,105.0,102.0,13.4,1505.3,326.1,-0.7,1.8,2470.329,13.32,0.059,262.3
2020-06-27T08:49:03,42.805,6.029,-0.077,-0.031,-0.009,105.0,105.0,102.0,13.4,1505.3,323.3,-0.7,1.8,2470.297,13.32,0.083,248.1
2020-06-27T08:52:03,42.805,6.029,-0.075,-0.02,0.008,106.0,105.0,103.0,13.4,1505.3,325.0,-0.7,1.8,2470.294,13.32,0.077,255.1
2020-06-27T08:55:03,42.805,6.029,-0.064,-0.015,0.0,105.0,105.0,103.0,13.4,1505.3,327.6,-0.8,1.8,2470.33,13.32,0.065,256.8
2020-06-27T08:58:03,42.805,6.029,-0.063,-0.015,0.017,105.0,105.0,102.0,13.4,1505.3,327.0,-0.7,1.9,2470.279,13.32,0.064,256.6
2020-06-27T09:04:03,42.805,6.029,-0.061,-0.017,0.006,105.0,106.0,102.0,13.4,1505.2,327.3,-0.8,1.8,2470.37,13.3,0.063,254.4
2020-06-27T09:07:03,42.805,6.029,-0.049,-0.012,0.013,105.0,105.0,102.0,13.4,1505.3,327.8,-0.7,1.9,2470.356,13.31,0.05,256.2
2020-06-27T09:10:03,42.805,6.029,-0.073,-0.008,-0.027,106.0,105.0,102.0,13.4,1505.3,324.2,-0.7,1.8,2470.349,13.31,0.073,263.7
2020-06-27T09:13:03,42.805,6.029,-0.078,-0.006,-0.01,105.0,105.0,102.0,13.4,1505.3,326.0,-0.7,1.8,2470.368,13.32,0.078,265.6
2020-06-27T09:16:03,42.805,6.029,-0.056,-0.007,0.0,105.0,105.0,102.0,13.4,1505.3,324.8,-0.7,1.8,2470.33,13.32,0.056,262.9
2020-06-27T09:19:03,42.805,6.029,-0.078,-0.023,-0.024,105.0,104.0,102.0,13.4,1505.3,324.1,-0.7,1.8,2470.322,13.32,0.081,253.6
2020-06-27T09:22:03,42.805,6.029,-0.065,-0.025,0.0,105.0,105.0,102.0,13.4,1505.3,323.3,-0.7,1.8,2470.347,13.32,0.069,249.0
2020-06-27T09:25:03,42.805,6.029,-0.082,-0.026,-0.051,105.0,105.0,103.0,13.4,1505.3,325.8,-0.7,1.8,2470.323,13.32,0.086,252.4
2020-06-27T09:28:03,42.805,6.029,-0.055,-0.044,-0.025,105.0,104.0,101.0,13.3,1505.3,328.1,-0.7,1.8,2470.309,13.32,0.07,231.3
2020-06-27T09:31:03,42.805,6.029,-0.057,-0.012,-0.028,103.0,104.0,102.0,13.3,1505.3,328.2,-0.7,1.8,2470.35,13.32,0.058,258.1
2020-06-27T09:34:03,42.805,6.029,-0.069,-0.024,-0.014,105.0,104.0,102.0,13.4,1505.3,326.7,-0.7,1.8,2470.321,13.32,0.073,250.8
2020-06-27T09:37:03,42.805,6.029,-0.085,-0.03,-0.035,105.0,102.0,102.0,13.4,1505.3,326.7,-0.7,1.8,2470.311,13.32,0.09,250.6
2020-06-27T09:40:03,42.805,6.029,-0.072,-0.031,-0.003,104.0,105.0,101.0,13.4,1505.3,326.7,-0.7,1.8,2470.34,13.32,0.078,246.7
2020-06-27T09:43:03,42.805,6.029,-0.055,-0.007,0.006,102.0,104.0,102.0,13.4,1505.3,326.7,-0.7,1.8,2470.346,13.32,0.055,262.7
2020-06-27T09:46:03,42.805,6.029,-0.069,-0.022,0.003,104.0,104.0,101.0,13.4,1505.3,326.8,-0.7,1.8,2470.318,13.32,0.072,252.3
2020-06-27T09:49:03,42.805,6.029,-0.074,-0.015,0.004,105.0,105.0,102.0,13.4,1505.3,325.2,-0.7,1.8,2470.356,13.32,0.075,258.5
2020-06-27T09:52:03,42.805,6.029,-0.061,-0.016,0.0,104.0,105.0,101.0,13.4,1505.3,324.5,-0.7,1.8,2470.375,13.32,0.063,255.3